Location: Sternwarte-Kraichtal
(49.1689°N, 8.6996°E)
Time: 13:48:53
(UTC+02:00)

Transit 4A - Visible Passes

Search period start: 28 May 2022 00:00
Search period end: 07 June 2022 00:00
Orbit: 863 x 981 km, 66.8° (Epoch: 27 May)

Date Brightness Start Highest point End Pass type
(mag) Time Alt. Az. Time Alt. Az. Time Alt. Az.
28 May 8.8 04:16:37 10° S 04:22:38 45° ESE 04:28:42 10° NE visible
29 May 10.2 02:44:15 10° ESE 02:46:39 12° E 02:49:02 10° ENE visible
29 May 8.4 04:25:30 10° SSW 04:31:48 63° ESE 04:38:07 10° NE visible
30 May 9.9 02:51:22 10° SE 02:55:31 18° ESE 02:59:41 10° ENE visible
30 May 8.1 04:34:36 10° SSW 04:41:01 84° ESE 04:47:28 10° NE visible
31 May 9.5 02:59:44 12° SSE 03:04:29 26° ESE 03:09:38 10° NE visible
01 Jun 9.0 03:08:50 15° S 03:13:30 37° ESE 03:19:17 10° NE visible
02 Jun 8.5 03:17:54 17° S 03:22:37 51° ESE 03:28:47 10° NE visible
03 Jun 10.0 01:43:25 10° SE 01:46:31 14° E 01:49:42 10° ENE visible
03 Jun 8.1 03:26:55 18° SSW 03:31:47 70° ESE 03:38:11 10° NE visible
04 Jun 9.6 01:52:24 15° SE 01:55:26 21° ESE 02:00:00 10° ENE visible
04 Jun 8.0 03:35:53 17° SW 03:41:03 88° NW 03:47:30 10° NE visible
05 Jun 9.2 02:01:19 20° SSE 02:04:25 29° ESE 02:09:49 10° NE visible
05 Jun 8.2 03:44:49 14° SW 03:50:23 67° NW 03:56:47 10° NNE visible
06 Jun 8.7 02:10:13 24° SSE 02:13:28 41° ESE 02:19:24 10° NE visible
06 Jun 8.6 03:53:42 11° WSW 03:59:47 51° NW 04:06:01 10° NNE visible
